Location: Carella
(45.8167°N, 9.2667°E)
Time: 14:06:11
(UTC+00:00)

CZ-2C R/B - Pass Details

Date: 30 March 2020
Orbit: 785 x 870 km, 98.3° (Epoch: 03 June)

Event Time Altitude Azimuth Distance (km) Brightness Sun altitude
Rises 20:42:26 0° 5° (N) 3,302 6.3 -28.1°
Reaches altitude 10° 20:44:57 10° 357° (N) 2,362 5.6 -28.4°
Maximum altitude 20:49:34 34° 294° (WNW) 1,284 4.1 -29.0°
Drops below altitude 10° 20:54:10 10° 231° (SW) 2,342 5.1 -29.6°
Enters shadow 20:55:30 - 225° (SW) 2,831 5.4 -29.7°
